[[{"header":{"parameterUnit":"m.s-1","parameterCategory":1,"la1":30.2991,"la2":30.254,"lo1":-89.0895,"lo2":-89.0444,"dy":0.0017,"dx":0.0017,"nx":28,"ny":28,"refTime":"2024-06-12T03:00:00:Z","depth":0,"parameterNumber":2,"parameterNumberName":"U-component_of_WINDS"},"data":[0,0,0,0,0,0,0,0,0,0,0,0,0,0,0,0,0,0,0,0,0,0,0,0,0,0,0,0,0,0,0,0,0,0,0,0,0,0,0,0,0,0,0,0,0,0,0,0,0,0,0,0,0,0,0,0,0,0,-2.2984,-2.2985,0,-2.3015,-2.3015,-2.3015,-2.2907,-2.2904,-2.2901,-2.2898,-2.2931,-2.2935,-2.2939,0,0,0,0,0,0,0,0,0,0,0,0,0,-2.2834,-2.2837,-2.2984,-2.2985,-2.2985,-2.3015,-2.3015,-2.3015,-2.2908,-2.2904,-2.29,-2.2896,-2.293,-2.2934,-2.2939,0,0,0,0,0,0,0,0,0,0,0,0,0,-2.2885,-2.2838,-2.2984,-2.2935,-2.2931,-2.3015,-2.3015,-2.3016,-2.2908,-2.2904,-2.2899,-2.2894,-2.2928,-2.2934,-2.294,-2.3073,0,0,-2.2957,-2.296,0,0,0,0,0,0,0,0,-2.2882,-2.2891,-2.2942,-2.2938,-2.2934,-2.2952,-2.2974,-2.3035,-2.291,-2.2917,-2.2897,-2.2892,-2.2942,-2.2946,-2.2963,-2.3075,-2.3076,-2.2958,-2.2962,-2.2964,-2.2966,0,0,0,0,0,0,0,-2.2879,-2.2889,-2.2996,-2.2942,-2.2938,-2.2911,-2.2913,-2.2985,-2.2957,-2.2916,-2.2908,-2.2913,-2.2939,-2.2957,-2.2963,-2.3077,-2.2958,-2.2963,-2.2967,-2.2969,-2.3299,-2.3304,0,0,0,0,0,0,-2.2882,-2.2887,-2.2995,-2.2997,-2.2895,-2.2918,-2.292,-2.2951,-2.2955,-2.2951,-2.2917,-2.2908,-2.295,-2.2956,-2.2964,-2.3121,-2.2964,-2.297,-2.2973,-2.3294,-2.33,-2.3306,0,0,0,0,0,0,-2.2879,-2.2892,-2.2994,-2.294,-2.2951,-2.2926,-2.2961,-2.2954,-2.2973,-2.2956,-2.2951,-2.2942,-2.2946,-2.2955,-2.3046,-2.312,-2.2972,-2.2977,-2.3288,-2.3296,-2.3303,-2.3436,0,0,0,0,0,0,-2.2875,-2.2892,-2.2943,-2.2942,-2.2954,-2.3077,-2.2966,-2.2958,-2.2983,-2.2971,-2.2978,-2.2974,-2.2943,-2.3038,-2.3052,-2.3126,-2.2982,-2.3281,-2.3291,-2.3301,-2.3425,-2.3448,-2.3467,0,0,0,0,0,-2.287,-2.2979,-2.2946,-2.2959,-2.3017,-2.3081,-2.3088,-2.305,-2.2989,-2.304,-2.3029,-2.2974,-2.3109,-2.3049,-2.3063,-2.314,-2.3276,-2.3289,-2.33,-2.3416,-2.3443,-2.3467,0,0,0,0,0,0,-2.2991,-2.2978,-2.2941,-2.3053,-2.3069,-2.3063,-2.3126,-2.308,-2.3114,-2.3102,-2.3053,-2.3055,-2.3156,-2.3156,-2.3089,-2.3269,-2.3182,-2.3198,-2.3266,-2.3291,-2.3312,-2.3311,-2.2987,0,0,0,0,0,-2.303,-2.3083,-2.307,-2.317,-2.318,-2.3152,-2.3178,-2.3147,-2.3162,-2.3168,-2.3164,-2.3181,-2.3227,-2.3259,-2.33,-2.3424,-2.3424,-2.3483,-2.3504,-2.3521,-2.3536,-2.3602,-2.3628,-2.3345,-2.3345,-2.3345,0,0,-2.3113,-2.3113,-2.315,-2.3194,-2.3203,-2.326,-2.3158,-2.3222,-2.3264,-2.3178,-2.3264,-2.3262,-2.3277,-2.3385,-2.3432,-2.3389,-2.3614,-2.3537,-2.355,-2.3556,-2.3616,-2.3643,-2.3667,-2.3353,-2.3351,-2.335,0,0,-2.3293,-2.3298,-2.3382,-2.3392,-2.3406,-2.3386,-2.3406,-2.3407,-2.3402,-2.3487,-2.3423,-2.3472,-2.3553,-2.3566,-2.3584,-2.3767,-2.3717,-2.3781,-2.3892,-2.3956,-2.3978,-2.3998,-2.4064,-2.4089,-2.3795,-2.3796,-2.3796,0,-2.3395,-2.3477,-2.3431,-2.35,-2.3522,-2.3445,-2.353,-2.3542,-2.3569,-2.3586,-2.3536,-2.3635,-2.364,-2.375,-2.3795,-2.3811,-2.3833,-2.3782,-2.3979,-2.3998,-2.4015,-2.4078,-2.4103,-2.3804,-2.3803,-2.3802,-2.3801,0,-2.3602,-2.3659,-2.3726,-2.3753,-2.3782,-2.3859,-2.3825,-2.3859,-2.3825,-2.381,-2.3898,-2.3901,-2.3941,-2.3965,-2.3932,-2.407,-2.4043,-2.3987,-2.3899,-2.4051,-2.4109,-2.4133,-2.3815,-2.3812,-2.381,-2.3808,0,0,-2.3862,-2.3861,-2.3886,-2.3897,-2.3906,-2.395,-2.4022,-2.4061,-2.4093,-2.4113,-2.4173,-2.4242,-2.419,-2.421,-2.4178,-2.4234,-2.438,-2.417,-2.417,-2.4211,-2.4533,-2.4577,-2.4605,-2.4346,-2.435,-2.4353,-2.4532,0,-2.4039,-2.4163,-2.4124,-2.425,-2.4303,-2.4229,-2.4292,-2.4305,-2.4293,-2.4336,-2.4322,-2.4372,-2.4299,-2.431,-2.4362,-2.4351,-2.4444,-2.4337,-2.4403,-2.4405,-2.4403,-2.4635,-2.4682,-2.4851,-2.4554,-2.4558,-2.4561,0,-2.4264,-2.4293,-2.4424,-2.4423,-2.4443,-2.4501,-2.4533,-2.4575,-2.4587,-2.4574,-2.4596,-2.4551,-2.4623,-2.4533,-2.4631,-2.4559,-2.4583,-2.4581,-2.4586,-2.4593,-2.4494,-2.465,-2.4903,-2.4929,-2.4596,-2.4593,-2.4591,0,-2.4443,-2.4514,-2.4601,-2.4613,-2.4613,-2.4655,-2.4657,-2.4664,-2.469,-2.4718,-2.4734,-2.477,-2.4791,-2.4819,-2.4786,-2.4724,-2.4889,-2.4797,-2.4881,-2.4883,-2.4922,-2.492,-2.5185,-2.4934,-2.4934,-2.4933,-2.4933,0,-2.4647,-2.473,-2.4681,-2.4735,-2.4826,-2.4779,-2.4871,-2.4864,-2.4871,-2.4923,-2.4861,-2.4911,-2.4862,-2.4908,-2.4882,-2.4967,-2.4977,-2.4969,-2.4961,-2.4976,-2.4977,-2.4992,-2.4981,-2.494,-2.4938,-2.4937,-2.4936,0,-2.4862,-2.4833,-2.4923,-2.4915,-2.4915,-2.4983,-2.4976,-2.5026,-2.5008,-2.5075,-2.5087,-2.506,-2.5111,-2.5079,-2.513,-2.5113,-2.5225,-2.52,-2.5221,-2.5215,-2.5302,-2.5295,-2.5587,-2.5623,-2.5349,-2.5351,-2.5353,0,-2.4996,-2.5058,-2.5056,-2.5086,-2.5092,-2.5141,-2.5166,-2.5122,-2.5151,-2.5168,-2.5216,-2.5261,-2.5295,-2.5378,-2.5363,-2.5402,-2.5379,-2.5478,-2.5385,-2.5397,-2.5382,-2.538,-2.5386,-2.5499,-2.5502,-2.5504,-2.5506,0,-2.5236,-2.5218,-2.5257,-2.5291,-2.5322,-2.5347,-2.5366,-2.5394,-2.5349,-2.5385,-2.5435,-2.5461,-2.5512,-2.5558,-2.559,-2.5592,-2.5543,-2.5536,-2.5558,-2.5574,-2.5584,-2.5581,-2.5275,-2.553,-2.5528,-2.5526,-2.5525,-2.5524,-2.5416,-2.5467,-2.5474,-2.5519,-2.5529,-2.5548,-2.5594,-2.5582,-2.5623,-2.5661,-2.5631,-2.5691,-2.57,-2.5738,-2.5747,-2.5793,-2.5753,-2.5784,-2.5792,-2.5801,-2.5814,-2.5575,-2.5798,-2.5798,-2.5797,-2.5796,-2.5796,0,-2.5654,-2.5654,-2.5696,-2.5724,-2.576,-2.5708,-2.5726,-2.576,-2.5813,-2.5825,-2.5859,-2.5917,-2.596,-2.5947,-2.5986,-2.6026,-2.6004,-2.6037,-2.6035,-2.6037,-2.5847,-2.5825,-2.6054,-2.6054,-2.6054,-2.6054,-2.6054,-2.6054,-2.5782,-2.5867,-2.585,-2.5939,-2.5938,-2.5996,-2.6011,-2.6028,-2.6037,-2.6104,-2.614,-2.6131,-2.6133,-2.6171,-2.6209,-2.6204,-2.6222,-2.6264,-2.6251,-2.6075,-2.605,-2.6026,-2.6005,-2.6268,-2.6268,-2.6437,-2.6438,-2.6439]},{"header":{"parameterUnit":"m.s-1","parameterCategory":1,"la1":30.2991,"la2":30.254,"lo1":-89.0895,"lo2":-89.0444,"dy":0.0017,"dx":0.0017,"nx":28,"ny":28,"refTime":"2024-06-12T03:00:00:Z","depth":0,"parameterNumber":3,"parameterNumberName":"V-component_of_WINDS"},"data":[0,0,0,0,0,0,0,0,0,0,0,0,0,0,0,0,0,0,0,0,0,0,0,0,0,0,0,0,0,0,0,0,0,0,0,0,0,0,0,0,0,0,0,0,0,0,0,0,0,0,0,0,0,0,0,0,0,0,-3.2634,-3.2635,0,-3.2708,-3.2709,-3.271,-3.2684,-3.2683,-3.2681,-3.2679,-3.2752,-3.2755,-3.2759,0,0,0,0,0,0,0,0,0,0,0,0,0,-3.2467,-3.247,-3.2634,-3.2635,-3.2636,-3.2708,-3.2709,-3.271,-3.2685,-3.2683,-3.2681,-3.2679,-3.2751,-3.2755,-3.2759,0,0,0,0,0,0,0,0,0,0,0,0,0,-3.254,-3.2471,-3.2634,-3.2632,-3.2633,-3.2708,-3.2709,-3.271,-3.2685,-3.2683,-3.268,-3.2678,-3.275,-3.2755,-3.276,-3.284,0,0,-3.2775,-3.2778,0,0,0,0,0,0,0,0,-3.2536,-3.2546,-3.2631,-3.2632,-3.2633,-3.2684,-3.2677,-3.2754,-3.2686,-3.2665,-3.2679,-3.2677,-3.2731,-3.2738,-3.2757,-3.2843,-3.2847,-3.2776,-3.2779,-3.2781,-3.2783,0,0,0,0,0,0,0,-3.2531,-3.2543,-3.2663,-3.2633,-3.2634,-3.2626,-3.2634,-3.2691,-3.2711,-3.2667,-3.2665,-3.2674,-3.2731,-3.2752,-3.2758,-3.2848,-3.2776,-3.278,-3.2784,-3.2786,-3.3002,-3.3005,0,0,0,0,0,0,-3.2526,-3.2539,-3.2661,-3.2665,-3.2578,-3.2631,-3.264,-3.267,-3.271,-3.2714,-3.2676,-3.2673,-3.2744,-3.2752,-3.2761,-3.2857,-3.2781,-3.2786,-3.2789,-3.3,-3.3003,-3.3006,0,0,0,0,0,0,-3.2523,-3.2537,-3.2658,-3.2602,-3.2617,-3.2637,-3.2671,-3.2673,-3.2694,-3.2717,-3.272,-3.2694,-3.2743,-3.2754,-3.282,-3.2859,-3.2788,-3.2793,-3.2997,-3.3001,-3.3005,-3.305,0,0,0,0,0,0,-3.2518,-3.2536,-3.2568,-3.2603,-3.262,-3.2717,-3.2674,-3.2676,-3.2703,-3.2699,-3.2735,-3.2738,-3.2742,-3.2813,-3.2826,-3.2865,-3.2797,-3.2993,-3.2999,-3.3003,-3.3045,-3.3055,-3.3063,0,0,0,0,0,-3.2512,-3.2577,-3.2569,-3.2584,-3.266,-3.272,-3.2729,-3.2733,-3.2706,-3.2738,-3.2753,-3.2737,-3.2853,-3.282,-3.2834,-3.2875,-3.2991,-3.2997,-3.3003,-3.3041,-3.3053,-3.3063,0,0,0,0,0,0,-3.2545,-3.2582,-3.2574,-3.2652,-3.2683,-3.2715,-3.2755,-3.2746,-3.2784,-3.2779,-3.278,-3.2788,-3.2857,-3.2873,-3.2836,-3.2955,-3.2918,-3.2927,-3.2942,-3.2953,-3.2963,-3.2957,-3.2801,0,0,0,0,0,-3.2562,-3.2608,-3.2637,-3.2704,-3.272,-3.2735,-3.2761,-3.2761,-3.2793,-3.2805,-3.2825,-3.2856,-3.2899,-3.2927,-3.2968,-3.3047,-3.3054,-3.3082,-3.3092,-3.3099,-3.3107,-3.3149,-3.3161,-3.3026,-3.3026,-3.3026,0,0,-3.2596,-3.2622,-3.2651,-3.2711,-3.2735,-3.2782,-3.2746,-3.2797,-3.2832,-3.2813,-3.2877,-3.2893,-3.2927,-3.3,-3.3033,-3.3015,-3.3146,-3.3107,-3.3113,-3.3116,-3.3156,-3.3169,-3.318,-3.303,-3.3029,-3.3028,0,0,-3.2683,-3.2707,-3.2765,-3.279,-3.2827,-3.2837,-3.2851,-3.2884,-3.2894,-3.2959,-3.2946,-3.2986,-3.3061,-3.3085,-3.3107,-3.3203,-3.319,-3.3216,-3.3264,-3.3305,-3.3315,-3.3325,-3.3358,-3.337,-3.3224,-3.3224,-3.3224,0,-3.272,-3.2792,-3.2796,-3.2848,-3.2875,-3.286,-3.2918,-3.2942,-3.299,-3.3008,-3.2987,-3.308,-3.3102,-3.318,-3.3204,-3.3222,-3.3237,-3.3212,-3.3314,-3.3323,-3.3332,-3.3364,-3.3376,-3.3227,-3.3226,-3.3226,-3.3226,0,-3.2836,-3.2886,-3.2928,-3.2976,-3.3007,-3.3061,-3.3072,-3.3103,-3.31,-3.3111,-3.3177,-3.3203,-3.3248,-3.3267,-3.3265,-3.3345,-3.3333,-3.3313,-3.3276,-3.3348,-3.3378,-3.339,-3.3231,-3.323,-3.3229,-3.3228,0,0,-3.2945,-3.2995,-3.301,-3.3031,-3.3071,-3.3109,-3.3162,-3.3208,-3.3234,-3.3267,-3.3311,-3.3375,-3.3357,-3.3382,-3.3382,-3.3418,-3.3491,-3.3394,-3.3395,-3.3411,-3.358,-3.3594,-3.3608,-3.3483,-3.3485,-3.3487,-3.3577,0,-3.3035,-3.313,-3.3135,-3.3221,-3.3266,-3.3253,-3.33,-3.3329,-3.3341,-3.338,-3.3392,-3.3437,-3.341,-3.3425,-3.3461,-3.3475,-3.3525,-3.3469,-3.3523,-3.3525,-3.3514,-3.3624,-3.3639,-3.3722,-3.3589,-3.3591,-3.3592,0,-3.3151,-3.319,-3.3281,-3.3314,-3.3333,-3.3375,-3.3416,-3.3454,-3.3486,-3.3492,-3.352,-3.3515,-3.3569,-3.353,-3.3604,-3.3565,-3.3587,-3.3598,-3.3601,-3.3606,-3.3562,-3.363,-3.3749,-3.3761,-3.361,-3.3609,-3.3608,0,-3.3221,-3.3295,-3.3359,-3.3378,-3.3418,-3.3447,-3.3465,-3.3495,-3.3521,-3.3557,-3.3575,-3.3616,-3.3639,-3.3671,-3.3676,-3.3648,-3.3749,-3.3712,-3.3755,-3.3755,-3.3776,-3.3774,-3.3899,-3.3792,-3.3792,-3.3792,-3.3791,0,-3.332,-3.3376,-3.3391,-3.343,-3.3492,-3.3496,-3.3557,-3.3572,-3.3599,-3.364,-3.3631,-3.3669,-3.3675,-3.3714,-3.3719,-3.3778,-3.3789,-3.3794,-3.3794,-3.3794,-3.3794,-3.3809,-3.3803,-3.3795,-3.3794,-3.3793,-3.3793,0,-3.3407,-3.342,-3.3489,-3.3521,-3.353,-3.3575,-3.3602,-3.3639,-3.3649,-3.3701,-3.3714,-3.3731,-3.3777,-3.3786,-3.384,-3.3843,-3.3913,-3.3908,-3.3903,-3.3902,-3.3944,-3.394,-3.4082,-3.4101,-3.3982,-3.3983,-3.3984,0,-3.3469,-3.3512,-3.3549,-3.3577,-3.3596,-3.364,-3.3668,-3.3673,-3.3702,-3.3742,-3.3773,-3.3819,-3.3855,-3.3929,-3.3945,-3.3986,-3.3982,-3.4029,-3.3988,-3.3986,-3.3981,-3.3978,-3.3982,-3.4036,-3.4038,-3.4039,-3.4039,0,-3.3577,-3.3581,-3.3622,-3.3665,-3.3698,-3.3732,-3.3764,-3.3786,-3.3796,-3.3828,-3.3876,-3.3904,-3.396,-3.4004,-3.4045,-3.4062,-3.4052,-3.4052,-3.4064,-3.4064,-3.4059,-3.4062,-3.3923,-3.4049,-3.4048,-3.4047,-3.4047,-3.4046,-3.3653,-3.3691,-3.3723,-3.3768,-3.3793,-3.3823,-3.3859,-3.3874,-3.3914,-3.3961,-3.3961,-3.4013,-3.4043,-3.4097,-3.4116,-3.4156,-3.4141,-3.4159,-3.4163,-3.4167,-3.4171,-3.4054,-3.4164,-3.4163,-3.4163,-3.4163,-3.4163,0,-3.376,-3.378,-3.3822,-3.3867,-3.3902,-3.3891,-3.3926,-3.3956,-3.4001,-3.4031,-3.4067,-3.4121,-3.4164,-3.4184,-3.4226,-3.4254,-3.425,-3.4265,-3.4262,-3.4266,-3.4182,-3.4167,-3.4267,-3.4267,-3.4267,-3.4267,-3.4267,-3.4267,-3.382,-3.3882,-3.389,-3.3963,-3.3983,-3.4034,-3.4054,-3.4082,-3.4105,-3.4166,-3.4202,-3.4215,-3.424,-3.4284,-3.4323,-3.4327,-3.4343,-3.4359,-3.4362,-3.4283,-3.4272,-3.4262,-3.4248,-3.4363,-3.4363,-3.4442,-3.4443,-3.4444]}]]